Regional Weather Roundup
Issued by NWS

Home | Current Version | Previous Version | Graphics & Text | Print | Product List | Glossary On
Versions: 1 2 3 4 5 6 7 8 9 10 11 12 13 14 15 16 17 18 19 20 21 22 23 24 25 26 27 28 29 30 31 32 33 34 35 36 37 38 39 40 41 42 43 44 45 46 47 48 49 50
000
ASUS43 KDMX 312007
RWRIA

WEATHER ROUNDUP FOR IOWA
NATIONAL WEATHER SERVICE DES MOINES IA
300 PM CDT FRI JUL 31 2015

NOTE: "FAIR" INDICATES FEW OR NO CLOUDS BELOW 12,000 FEET WITH NO
SIGNIFICANT WEATHER AND/OR OBSTRUCTIONS TO VISIBILITY.

* - THESE STATIONS ARE NOT NWS STATIONS...THUS NOT UNDER NWS
QUALITY CONTROL.  THEY ALSO DO NOT REPORT WEATHER SUCH
AS PRECIPITATION OR FOG.

IAZ001>003-012>014-020>022-031>034-043>046-312100-
   NORTHWEST IOWA

CITY           SKY/WX    TMP DP  RH WIND       PRES   REMARKS
CARROLL *      PTSUNNY   82  66  57 NE3       30.11F HX  85
CHEROKEE *     SUNNY     82  57  42 E6        30.11F HX  82
DENISON *      HAZE      82  70  65 CALM      30.09F VSB 3/4 HX  86
LE MARS *      SUNNY     82  61  47 E8        30.11F HX  83
ORANGE CITY *  SUNNY     82  57  42 E5        30.12F HX  82
SHELDON *      SUNNY     82  57  42 CALM      30.11F HX  82
SIOUX CITY     MOSUNNY   86  71  60 SE8       30.08F HX  91
SPENCER        SUNNY     85  53  33 VRB5      30.12F HX  83
STORM LAKE *   SUNNY     81  61  50 CALM      30.13F HX  81
$$

IAZ055>058-069>071-079>083-090>094-312100-
   SOUTHWEST IOWA

CITY           SKY/WX    TMP DP  RH WIND       PRES   REMARKS
ATLANTIC *     MOSUNNY   86  75  70 CALM      30.09F HX  95
AUDUBON *      SUNNY     88  72  58 CALM      30.12F HX  94
CLARINDA *     PTSUNNY   90  75  62 SW6       30.11F HX 100
COUNCIL BLFS * MOSUNNY   90  73  58 MISG      30.08F HX  98
CRESTON *      SUNNY     86  70  58 VRB6      30.12F HX  90
HARLAN  *      MOSUNNY   86  79  79 NE5       30.13F HX  99
LAMONI         SUNNY     88  71  57 NW5       30.10F HX  94
RED OAK *      MOSUNNY   90  75  62 SW8       30.09F HX 100
SHENANDOAH *   PTSUNNY   90  75  62 W6        30.09F HX 100
$$

IAZ047>049-059>061-072>074-084-312100-
   CENTRAL IOWA

CITY           SKY/WX    TMP DP  RH WIND       PRES   REMARKS
AMES           MOSUNNY   85  61  44 NW8       30.09F HX  85
ANKENY *       CLOUDY    84  68  58 NE9       30.08F HX  87
CHARITON *     SUNNY     86  68  54 CALM      30.09F HX  89
DES MOINES     MOSUNNY   88  62  41 NE12      30.07F HX  88
GRINNELL*      SUNNY     82  63  51 NW7       30.09F HX  83
KNOXVILLE *    SUNNY     84  64  51 VRB6      30.07F HX  86
MARSHALLTOWN   PTSUNNY   83  64  52 N8        30.08F HX  84
PELLA *        SUNNY     86  70  58 NW5       30.09S HX  90
PERRY *          N/A     84  68  58 N7        30.10S HX  87
$$

IAZ004>006-015-016-023>025-035-036-312100-
   NORTH CENTRAL IOWA

CITY           SKY/WX    TMP DP  RH WIND       PRES   REMARKS
ALGONA *       SUNNY     82  54  36 N12       30.11F HX  81
CLARION *      SUNNY     81  59  47 NW10      30.11F HX  81
ESTHERVILLE    SUNNY     81  53  37 N6        30.12F HX  80
FORT DODGE *   SUNNY     82  63  51 N3        30.12S HX  83
MASON CITY     SUNNY     82  57  42 NW14      30.10F HX  82
FOREST CITY *  SUNNY     79  55  44 NW12      30.10F
IOWA FALLS *     N/A     82  59  44 NW8       30.11F HX  82
$$

IAZ007>011-017>019-026>030-037>042-050>054-066-312100-
   NORTHEAST IOWA

CITY           SKY/WX    TMP DP  RH WIND       PRES   REMARKS
CEDAR RAPIDS   SUNNY     83  67  58 NW10      30.06S HX  85
CHARLES CITY * SUNNY     79  59  50 NW13G22   30.08F HX  80
CLINTON *      SUNNY     84  59  42 NW16      30.05F HX  84
DECORAH *      SUNNY     79  54  41 NW10G20   30.05S
DUBUQUE        SUNNY     83  54  36 NW17G28   30.04F HX  82
MONTICELLO *   SUNNY     82  55  39 NW16G25   30.04F HX  82
OELWEIN *      SUNNY     81  57  44 NW13G20   30.07F HX  81
WATERLOO       SUNNY     83  56  39 NW13G22   30.06F HX  82
$$

IAZ064-065-067-068-078-312100-
   EAST CENTRAL IOWA

CITY           SKY/WX    TMP DP  RH WIND       PRES   REMARKS
DAVENPORT      SUNNY     85  64  49 NW12G18   30.04F HX  86
IOWA CITY      SUNNY     87  58  37 NW10      30.06F HX  86
MT. PLEASANT * SUNNY     90  52  27 NW7       30.07S HX  87
MUSCATINE *    SUNNY     90  57  33 N12       30.04F HX  88
QUAD CITIES    SUNNY     89  56  32 NW15      30.03F HX  87
$$

IAZ062-063-075>077-085>089-095>099-312100-
   SOUTHEAST IOWA

CITY           SKY/WX    TMP DP  RH WIND       PRES   REMARKS
BURLINGTON     SUNNY     87  66  49 NW5       30.05F HX  89
FAIRFIELD *    SUNNY     84  66  54 NW8       30.07F HX  86
FORT MADISON * SUNNY     84  68  58 NW5       30.07F HX  87
KEOKUK *       MOSUNNY   88  68  51 NW8       30.05F HX  91
OSKALOOSA *      N/A     84  68  58 NW3       30.08F HX  87
CENTERVILLE *  SUNNY     84  70  61 W7        30.10F HX  88
OTTUMWA        MOSUNNY   84  69  60 VRB3      30.06F HX  88
WASHINGTON *   SUNNY     86  63  45 NW9G15    30.08S HX  87
$$

ABBREVIATIONS USED IN REMARKS
   TC - TEMPERATURES IN CELSIUS
  WCI - WIND CHILL INDEX
   HX - HEAT INDEX
  VSB - VISIBILITY
$$




USA.gov is the U.S. government's official web portal to all federal, state and local government web resources and services.